Weather History for Sumter, SC

Change the Weather History Date:

Saturday, May 4, 2013

  Actual Average Record
Temperature  
Mean Temperature 56 °F -  
Max Temperature 62 °F 80 °F 87 °F (2012)
Min Temperature 51 °F 52 °F 51 °F (2013)
Degree Days  
Heating Degree Days 8    
Growing Degree Days 6 (Base 50)    
Moisture  
Dew Point 52 °F    
Average Humidity 84    
Maximum Humidity 100    
Minimum Humidity 63    
Precipitation  
Precipitation 0.02 in - - ()
Sea Level Pressure  
Sea Level Pressure 30.03 in    
Wind  
Wind Speed 10 mph (ENE)    
Max Wind Speed 14 mph    
Max Gust Speed 22 mph    
Visibility 9 miles    
Events Rain    
Averages and records for this station are not official NWS values.
T = Trace of Precipitation, MM = Missing Value Source: NWS Daily Summary

Daily Weather History Graph

Daily Weather History Graph

Search for Another Location

Airport:

Trip Planner

Search our weather history database for the weather conditions in past years. The results will help you decide how hot, cold, wet, or windy it might be!

Date:

Astronomy

May. 04, 2013 Rise Set
Actual Time 6:29 AM EDT 8:07 PM EDT
Civil Twilight 6:02 AM EDT 8:34 PM EDT
Nautical Twilight 5:29 AM EDT 9:07 PM EDT
Astronomical Twilight 4:55 AM EDT 9:41 PM EDT
Moon 3:12 AM EDT (5/4) 3:17 PM EDT (5/4)
Length of Visible Light 14h 32m
Length of Day
13h 38m
Waning Crescent, 27% of the Moon is Illuminated
May 4
Waning Crescent
May 9
New
May 18
First Quarter
May 25
Full
May 31
Last Quarter

Hourly Weather History & Observations

Time (EDT) Temp. Dew Point Humidity Pressure Visibility Wind Dir Wind Speed Gust Speed Precip Events Conditions
12:15 AM 59.0 °F 50.0 °F 72% 30.10 in 10.0 mi ENE 13.8 mph 18.4 mph N/A   Overcast
12:35 AM 59.0 °F 48.2 °F 67% 30.10 in 10.0 mi East 8.1 mph 17.3 mph N/A   Overcast
12:55 AM 57.2 °F 48.2 °F 72% 30.10 in 10.0 mi ENE 11.5 mph 19.6 mph N/A   Overcast
1:15 AM 57.2 °F 44.6 °F 63% 30.09 in 10.0 mi NE 10.4 mph - N/A   Mostly Cloudy
1:35 AM 55.4 °F 44.6 °F 67% 30.09 in 10.0 mi ENE 6.9 mph - N/A   Mostly Cloudy
1:55 AM 55.4 °F 44.6 °F 67% 30.08 in 10.0 mi NE 12.7 mph 18.4 mph N/A   Clear
2:15 AM 55.4 °F 44.6 °F 67% 30.08 in 10.0 mi ENE 9.2 mph 17.3 mph N/A   Scattered Clouds
2:35 AM 55.4 °F 44.6 °F 67% 30.07 in 10.0 mi ENE 10.4 mph - N/A   Partly Cloudy
2:55 AM 53.6 °F 44.6 °F 72% 30.06 in 10.0 mi ENE 8.1 mph 19.6 mph N/A   Clear
3:15 AM 53.6 °F 44.6 °F 72% 30.06 in 10.0 mi ENE 6.9 mph - N/A   Clear
3:35 AM 53.6 °F 44.6 °F 72% 30.06 in 10.0 mi ENE 8.1 mph - N/A   Partly Cloudy
3:55 AM 53.6 °F 46.4 °F 77% 30.06 in 10.0 mi ENE 9.2 mph - N/A   Partly Cloudy
4:15 AM 53.6 °F 46.4 °F 77% 30.05 in 10.0 mi ENE 10.4 mph - N/A   Clear
4:35 AM 53.6 °F 46.4 °F 77% 30.05 in 10.0 mi ENE 9.2 mph - N/A   Clear
4:55 AM 51.8 °F 46.4 °F 82% 30.06 in 10.0 mi ENE 9.2 mph - N/A   Partly Cloudy
5:15 AM 51.8 °F 46.4 °F 82% 30.05 in 10.0 mi ENE 9.2 mph - N/A   Scattered Clouds
5:35 AM 51.8 °F 46.4 °F 82% 30.05 in 10.0 mi ENE 10.4 mph 16.1 mph N/A   Partly Cloudy
5:55 AM 51.8 °F 46.4 °F 82% 30.05 in 10.0 mi ENE 10.4 mph 16.1 mph N/A   Partly Cloudy
6:15 AM 51.8 °F 46.4 °F 82% 30.06 in 10.0 mi ENE 9.2 mph 18.4 mph N/A   Partly Cloudy
6:35 AM 51.8 °F 46.4 °F 82% 30.06 in 10.0 mi NE 13.8 mph - N/A   Scattered Clouds
6:55 AM 51.8 °F 46.4 °F 82% 30.07 in 10.0 mi ENE 10.4 mph 19.6 mph N/A   Scattered Clouds
7:15 AM 51.8 °F 46.4 °F 82% 30.08 in 10.0 mi ENE 10.4 mph 19.6 mph N/A   Scattered Clouds
7:35 AM 51.8 °F 48.2 °F 88% 30.08 in 10.0 mi ENE 10.4 mph 16.1 mph N/A   Mostly Cloudy
7:55 AM 51.8 °F 48.2 °F 88% 30.08 in 10.0 mi ENE 10.4 mph 16.1 mph N/A   Mostly Cloudy
8:15 AM 51.8 °F 48.2 °F 88% 30.07 in 10.0 mi ENE 10.4 mph - N/A   Scattered Clouds
8:35 AM 53.6 °F 48.2 °F 82% 30.07 in 10.0 mi ENE 12.7 mph 18.4 mph N/A   Scattered Clouds
8:55 AM 53.6 °F 48.2 °F 82% 30.07 in 10.0 mi ENE 11.5 mph 18.4 mph N/A   Mostly Cloudy
9:15 AM 53.6 °F 48.2 °F 82% 30.06 in 10.0 mi ENE 11.5 mph 16.1 mph N/A   Mostly Cloudy
9:35 AM 53.6 °F 50.0 °F 88% 30.07 in 10.0 mi ENE 10.4 mph 18.4 mph N/A   Overcast
9:55 AM 55.4 °F 50.0 °F 82% 30.07 in 10.0 mi ENE 13.8 mph 21.9 mph N/A   Overcast
10:15 AM 55.4 °F 50.0 °F 82% 30.07 in 10.0 mi ENE 10.4 mph 16.1 mph N/A   Overcast
10:35 AM 55.4 °F 50.0 °F 82% 30.07 in 10.0 mi ENE 10.4 mph 17.3 mph N/A   Overcast
10:55 AM 55.4 °F 50.0 °F 82% 30.06 in 10.0 mi ENE 11.5 mph 16.1 mph N/A   Overcast
11:15 AM 55.4 °F 50.0 °F 82% 30.07 in 10.0 mi ENE 12.7 mph 20.7 mph N/A   Overcast
11:35 AM 57.2 °F 51.8 °F 82% 30.06 in 10.0 mi ENE 11.5 mph - N/A   Overcast
11:55 AM 59.0 °F 53.6 °F 82% 30.05 in 10.0 mi ENE 12.7 mph 19.6 mph N/A   Overcast
12:15 PM 59.0 °F 53.6 °F 82% 30.04 in 10.0 mi East 9.2 mph - N/A   Overcast
12:35 PM 59.0 °F 53.6 °F 82% 30.04 in 10.0 mi East 6.9 mph 16.1 mph N/A   Overcast
12:55 PM 60.8 °F 53.6 °F 77% 30.04 in 10.0 mi ENE 10.4 mph 18.4 mph N/A   Overcast
1:15 PM 60.8 °F 53.6 °F 77% 30.03 in 10.0 mi ENE 10.4 mph 16.1 mph N/A   Overcast
1:35 PM 62.6 °F 53.6 °F 72% 30.02 in 10.0 mi ENE 11.5 mph 17.3 mph N/A   Overcast
1:55 PM 62.6 °F 53.6 °F 72% 30.02 in 10.0 mi ENE 9.2 mph - N/A   Overcast
2:15 PM 60.8 °F 53.6 °F 77% 30.02 in 10.0 mi East 6.9 mph - N/A   Overcast
2:35 PM 60.8 °F 53.6 °F 77% 30.02 in 10.0 mi East 4.6 mph - N/A   Overcast
2:55 PM 62.6 °F 55.4 °F 77% 30.01 in 8.0 mi ENE 8.1 mph - N/A   Overcast
3:15 PM 60.8 °F 57.2 °F 88% 30.01 in 4.0 mi ENE 10.4 mph - N/A Rain Light Rain
3:35 PM 60.8 °F 57.2 °F 88% 30.00 in 10.0 mi ENE 8.1 mph - N/A   Overcast
3:55 PM 62.6 °F 55.4 °F 77% 29.99 in 10.0 mi East 4.6 mph - N/A   Overcast
4:15 PM 62.6 °F 55.4 °F 77% 29.98 in 8.0 mi ENE 8.1 mph - N/A Rain Light Rain
4:35 PM 62.6 °F 55.4 °F 77% 29.98 in 8.0 mi East 10.4 mph 18.4 mph N/A   Overcast
4:55 PM 59.0 °F 59.0 °F 100% 30.00 in 2.0 mi East 6.9 mph - N/A   Overcast
5:15 PM 59.0 °F 59.0 °F 100% 29.99 in 2.0 mi East 5.8 mph - 0.01 in Rain Light Rain
5:35 PM 59.0 °F 59.0 °F 100% 29.99 in 2.5 mi ENE 4.6 mph - 0.01 in Rain Light Rain
5:55 PM 59.0 °F 59.0 °F 100% 29.99 in 2.5 mi ENE 5.8 mph - 0.02 in Rain Light Rain
6:15 PM 59.0 °F 59.0 °F 100% 29.98 in 8.0 mi ENE 4.6 mph - N/A   Overcast
6:35 PM 59.0 °F 59.0 °F 100% 29.99 in 9.0 mi ENE 4.6 mph - N/A Rain Light Rain
6:55 PM 59.0 °F 59.0 °F 100% 29.97 in 10.0 mi ENE 8.1 mph - N/A   Overcast
7:15 PM 59.0 °F 59.0 °F 100% 29.97 in 8.0 mi ENE 5.8 mph - N/A Rain Light Rain
7:35 PM 59.0 °F 59.0 °F 100% 29.98 in 10.0 mi ENE 5.8 mph - N/A Rain Light Rain
7:55 PM 59.0 °F 59.0 °F 100% 29.98 in 10.0 mi Calm Calm - N/A   Overcast
8:15 PM 59.0 °F 59.0 °F 100% 29.98 in 9.0 mi Calm Calm - N/A   Overcast
8:35 PM 59.0 °F 59.0 °F 100% 29.98 in 10.0 mi ENE 3.5 mph - N/A   Overcast
8:55 PM 59.0 °F 59.0 °F 100% 29.97 in 9.0 mi Calm Calm - N/A Rain Light Rain
9:15 PM 59.0 °F 59.0 °F 100% 29.97 in 10.0 mi East 4.6 mph - N/A   Mostly Cloudy
9:35 PM 59.0 °F 59.0 °F 100% 29.97 in 10.0 mi East 6.9 mph - N/A   Mostly Cloudy
9:55 PM 59.0 °F 57.2 °F 94% 29.97 in 10.0 mi East 5.8 mph - N/A   Scattered Clouds
10:15 PM 59.0 °F 55.4 °F 88% 29.98 in 10.0 mi East 10.4 mph - N/A   Partly Cloudy
10:35 PM 59.0 °F 55.4 °F 88% 29.97 in 10.0 mi East 9.2 mph 17.3 mph N/A   Scattered Clouds
10:55 PM 59.0 °F 55.4 °F 88% 29.98 in 10.0 mi East 9.2 mph 17.3 mph N/A   Mostly Cloudy
11:15 PM 59.0 °F 55.4 °F 88% 29.98 in 10.0 mi East 9.2 mph - N/A   Overcast
11:35 PM 59.0 °F 55.4 °F 88% 29.98 in 10.0 mi East 8.1 mph 18.4 mph N/A   Overcast
11:55 PM 59.0 °F 55.4 °F 88% 29.97 in 10.0 mi ENE 8.1 mph - N/A   Overcast